Location: Unspecified
(0.0000°N, 0.0000°E)
Time: 08:38:09
(UTC+02:00)

Cosmos 1812 Rocket - Visible Passes

Search period start: 30 September 2016 00:00
Search period end: 10 October 2016 00:00
Orbit: 606 x 633 km, 82.5° (Epoch: 29 September)

Date Brightness Start Highest point End Pass type
(mag) Time Alt. Az. Time Alt. Az. Time Alt. Az.
30 Sep 6.6 06:22:13 10° NE 06:25:13 18° E 06:28:14 10° SE visible
30 Sep 7.4 20:10:16 10° WSW 20:11:33 11° W 20:12:50 10° WNW visible
01 Oct 5.1 06:38:26 10° NNE 06:42:36 39° E 06:46:47 10° SSE visible
02 Oct 3.6 06:55:31 10° N 06:59:59 87° W 07:04:28 10° S visible
03 Oct 4.1 07:13:14 10° NNW 07:17:21 37° W 07:21:29 10° SSW visible
04 Oct 6.3 05:53:59 10° NE 05:57:09 19° E 06:00:21 10° SE visible
05 Oct 4.8 06:10:18 10° NNE 06:14:31 43° E 06:18:46 10° SSE visible
06 Oct 3.4 06:27:27 10° N 06:31:55 80° W 06:36:23 10° S visible
07 Oct 4.2 06:45:15 10° NNW 06:49:16 34° W 06:53:19 10° SSW visible
08 Oct 6.0 05:27:53 19° ENE 05:29:05 21° E 05:32:25 10° SE visible
08 Oct 5.1 07:05:12 13° WNW 07:06:40 15° W 07:09:16 10° SW visible
09 Oct 4.7 05:47:16 41° ESE 05:47:16 41° ESE 05:50:44 10° SSE visible
